📊 Raw Sensor Data

Showing records 51601 to 51625 of 85,150 total

ID Distance (ft) Battery V Battery A Int Temp (°F) Int Humid (%) Ext Temp (°F) Solar V RSSI SNR Time Stamp
33562 14.8 4.11 95 48 36 51 4.50 -72 7 02/27/2025 07:45 AM
33561 14.7 4.01 25 46 37 48 4.50 -71 7 02/27/2025 07:30 AM
33560 14.8 3.96 25 45 37 47 4.50 -72 8 02/27/2025 07:15 AM
33559 14.8 3.96 0 44 38 46 4.50 -72 8 02/27/2025 07:00 AM
33558 14.8 3.86 -7 44 37 45 4.50 -71 8 02/27/2025 06:45 AM
33557 14.8 3.86 -9 44 38 45 3.20 -72 8 02/27/2025 06:30 AM
33556 14.7 3.87 -5 44 38 45 0.10 -71 8 02/27/2025 06:15 AM
33555 14.7 3.87 -5 43 38 45 0.00 -72 6 02/27/2025 06:00 AM
33554 14.7 3.87 -5 44 38 46 0.00 -72 7 02/27/2025 05:45 AM
33553 14.7 3.87 -5 44 38 44 0.00 -71 8 02/27/2025 05:30 AM
33552 14.7 3.87 -5 45 38 47 0.00 -72 8 02/27/2025 05:15 AM
33551 14.7 3.87 -5 45 38 47 0.00 -71 8 02/27/2025 05:00 AM
33550 14.7 3.87 -5 45 38 47 0.00 -71 8 02/27/2025 04:45 AM
33549 14.7 3.87 -5 45 38 48 0.00 -71 7 02/27/2025 04:30 AM
33548 14.7 3.87 -5 46 38 48 0.10 -71 8 02/27/2025 04:15 AM
33547 14.7 3.87 -5 45 38 48 0.10 -71 8 02/27/2025 04:00 AM
33546 14.7 3.87 -5 46 38 47 0.00 -70 8 02/27/2025 03:45 AM
33545 14.7 3.87 -34 46 37 48 0.00 -71 9 02/27/2025 03:30 AM
33544 14.7 3.93 -5 46 38 49 0.10 -70 8 02/27/2025 03:15 AM
33543 14.7 3.93 -5 45 38 47 0.10 -70 7 02/27/2025 03:00 AM
33542 14.7 3.88 -34 45 38 46 0.00 -70 8 02/27/2025 02:45 AM
33541 14.7 3.88 -5 45 38 47 0.00 -71 8 02/27/2025 02:30 AM
33540 14.7 3.88 -5 45 38 47 0.00 -71 8 02/27/2025 02:15 AM
33539 14.7 3.88 -5 45 38 47 0.10 -70 8 02/27/2025 02:00 AM
33538 14.7 3.88 -5 44 38 47 0.10 -70 9 02/27/2025 01:45 AM